• în Republica Moldova
  • Lista ţărilor
  • Pe 7 zile
  • Temperatura apei
  • Hartă satelitară
  • Meteo pe hartă
  • Widget-uri
  • user-avatar
    Intrare

    Meteo pe oră la Shkoder

    Astăzi, 28 Mai, Duminică

    Timp Temperatura Precipitaţii Vânt Presiune Umiditate
    00:00 +13°C° 0 mm 3 m/s 741 mmHg 83%
    01:00 +13°C° 0 mm 3 m/s 741 mmHg 83%
    02:00 +13°C° 0 mm 3 m/s 741 mmHg 84%
    03:00 +13°C° 0 mm 3 m/s 741 mmHg 84%
    04:00 +13°C° 0 mm 3 m/s 741 mmHg 84%
    05:00 +14°C° 0 mm 3 m/s 741 mmHg 79%
    06:00 +17°C° 0 mm 3 m/s 742 mmHg 73%
    07:00 +18°C° 0 mm 4 m/s 742 mmHg 67%
    08:00 +20°C° 0 mm 3 m/s 742 mmHg 61%
    09:00 +22°C° 0 mm 3 m/s 742 mmHg 54%
    10:00 +24°C° 0 mm 3 m/s 742 mmHg 48%
    11:00 +25°C° 0,1 mm 3 m/s 742 mmHg 47%
    12:00 +25°C° 0,1 mm 4 m/s 742 mmHg 46%
    13:00 +26°C° 0,1 mm 4 m/s 742 mmHg 45%
    14:00 +26°C° 0,1 mm 4 m/s 742 mmHg 46%
    15:00 +25°C° 0,1 mm 4 m/s 742 mmHg 48%
    16:00 +25°C° 0,1 mm 3 m/s 742 mmHg 49%
    17:00 +22°C° 0,1 mm 3 m/s 742 mmHg 58%
    18:00 +20°C° 0,1 mm 3 m/s 742 mmHg 66%
    19:00 +18°C° 0,1 mm 3 m/s 742 mmHg 74%
    20:00 +17°C° 0 mm 3 m/s 742 mmHg 76%
    21:00 +16°C° 0 mm 3 m/s 742 mmHg 77%
    22:00 +16°C° 0 mm 3 m/s 743 mmHg 79%
    23:00 +14°C° 0 mm 3 m/s 743 mmHg 80%

    Mâine, 29 Mai, Luni

    Timp Temperatura Precipitaţii Vânt Presiune Umiditate
    00:00 +14°C° 0 mm 3 m/s 743 mmHg 81%
    01:00 +14°C° 0 mm 3 m/s 743 mmHg 82%
    02:00 +13°C° 0 mm 3 m/s 742 mmHg 83%
    03:00 +13°C° 0 mm 3 m/s 742 mmHg 83%
    04:00 +13°C° 0 mm 3 m/s 742 mmHg 84%
    05:00 +14°C° 0 mm 3 m/s 742 mmHg 78%
    06:00 +17°C° 0 mm 3 m/s 742 mmHg 72%
    07:00 +19°C° 0 mm 2 m/s 742 mmHg 66%
    08:00 +21°C° 0 mm 2 m/s 742 mmHg 58%
    09:00 +24°C° 0 mm 1 m/s 742 mmHg 50%
    10:00 +27°C° 0 mm 1 m/s 742 mmHg 42%
    11:00 +27°C° 0 mm 2 m/s 741 mmHg 41%
    12:00 +28°C° 0 mm 2 m/s 741 mmHg 39%
    13:00 +28°C° 0 mm 3 m/s 741 mmHg 38%
    14:00 +28°C° 0 mm 3 m/s 740 mmHg 41%
    15:00 +27°C° 0 mm 3 m/s 740 mmHg 43%
    16:00 +27°C° 0 mm 3 m/s 740 mmHg 46%
    17:00 +24°C° 0 mm 2 m/s 740 mmHg 59%
    18:00 +20°C° 0 mm 2 m/s 740 mmHg 71%
    19:00 +18°C° 0 mm 1 m/s 739 mmHg 83%
    20:00 +16°C° 0 mm 1 m/s 740 mmHg 84%
    21:00 +15°C° 0 mm 1 m/s 740 mmHg 85%
    22:00 +14°C° 0 mm 1 m/s 740 mmHg 86%
    23:00 +14°C° 0 mm 1 m/s 740 mmHg 86%

    Poimâine, 30 Mai, Marţi

    Timp Temperatura Precipitaţii Vânt Presiune Umiditate
    00:00 +13°C° 0 mm 0 m/s 740 mmHg 86%
    01:00 +12°C° 0 mm 0 m/s 740 mmHg 86%
    02:00 +12°C° 0 mm 0 m/s 739 mmHg 87%
    03:00 +12°C° 0 mm 0 m/s 739 mmHg 88%
    04:00 +11°C° 0 mm 0 m/s 739 mmHg 89%
    05:00 +15°C° 0 mm 0 m/s 740 mmHg 79%
    06:00 +18°C° 0 mm 0 m/s 740 mmHg 69%
    07:00 +21°C° 0 mm 0 m/s 740 mmHg 59%
    08:00 +23°C° 0 mm 0 m/s 740 mmHg 54%
    09:00 +26°C° 0 mm 1 m/s 740 mmHg 49%
    10:00 +28°C° 0 mm 1 m/s 740 mmHg 44%
    11:00 +28°C° 0 mm 2 m/s 740 mmHg 44%
    12:00 +28°C° 0 mm 2 m/s 740 mmHg 44%
    13:00 +28°C° 0 mm 3 m/s 740 mmHg 43%
    14:00 +28°C° 0,2 mm 2 m/s 740 mmHg 48%
    15:00 +27°C° 0,2 mm 2 m/s 740 mmHg 53%
    16:00 +26°C° 0,2 mm 2 m/s 740 mmHg 58%
    17:00 +24°C° 0,3 mm 2 m/s 740 mmHg 68%
    18:00 +22°C° 0,3 mm 1 m/s 740 mmHg 78%
    19:00 +19°C° 0,3 mm 1 m/s 740 mmHg 88%
    20:00 +18°C° 0,1 mm 1 m/s 740 mmHg 89%
    21:00 +18°C° 0,1 mm 1 m/s 741 mmHg 90%
    22:00 +16°C° 0,1 mm 1 m/s 741 mmHg 91%
    23:00 +15°C° 0 mm 1 m/s 741 mmHg 92%

    31 Mai, Miercuri

    Timp Temperatura Precipitaţii Vânt Presiune Umiditate
    00:00 +15°C° 0 mm 1 m/s 741 mmHg 92%
    01:00 +13°C° 0 mm 0 m/s 741 mmHg 93%
    02:00 +14°C° 0 mm 1 m/s 741 mmHg 93%
    03:00 +14°C° 0 mm 1 m/s 741 mmHg 93%
    04:00 +14°C° 0 mm 1 m/s 741 mmHg 93%
    05:00 +16°C° 0 mm 1 m/s 741 mmHg 86%
    06:00 +20°C° 0 mm 1 m/s 741 mmHg 78%
    07:00 +23°C° 0 mm 1 m/s 741 mmHg 71%
    08:00 +24°C° 0 mm 1 m/s 741 mmHg 64%
    09:00 +26°C° 0 mm 1 m/s 741 mmHg 56%
    10:00 +27°C° 0 mm 2 m/s 741 mmHg 49%
    11:00 +28°C° 0,2 mm 2 m/s 741 mmHg 50%
    12:00 +28°C° 0,2 mm 2 m/s 741 mmHg 50%
    13:00 +28°C° 0,2 mm 3 m/s 741 mmHg 51%
    14:00 +27°C° 0,3 mm 3 m/s 741 mmHg 53%
    15:00 +27°C° 0,3 mm 2 m/s 740 mmHg 55%
    16:00 +26°C° 0,3 mm 2 m/s 740 mmHg 56%
    17:00 +24°C° 0,2 mm 2 m/s 740 mmHg 65%
    18:00 +21°C° 0,2 mm 1 m/s 740 mmHg 74%
    19:00 +19°C° 0,2 mm 1 m/s 740 mmHg 83%
    20:00 +18°C° 0,1 mm 1 m/s 741 mmHg 83%
    21:00 +15°C° 0,1 mm 0 m/s 741 mmHg 84%
    22:00 +15°C° 0,1 mm 0 m/s 741 mmHg 85%
    23:00 +14°C° 0 mm 0 m/s 741 mmHg 85%

    1 Iunie, Joi

    Timp Temperatura Precipitaţii Vânt Presiune Umiditate
    00:00 +14°C° 0 mm 0 m/s 741 mmHg 85%
    01:00 +14°C° 0 mm 0 m/s 741 mmHg 85%
    02:00 +14°C° 0 mm 0 m/s 741 mmHg 85%
    03:00 +13°C° 0 mm 0 m/s 741 mmHg 86%
    04:00 +13°C° 0 mm 0 m/s 740 mmHg 87%
    05:00 +16°C° 0 mm 0 m/s 741 mmHg 78%
    06:00 +19°C° 0 mm 0 m/s 741 mmHg 70%
    07:00 +22°C° 0 mm 0 m/s 741 mmHg 61%
    08:00 +25°C° 0 mm 1 m/s 741 mmHg 57%
    09:00 +27°C° 0 mm 1 m/s 741 mmHg 52%
    10:00 +28°C° 0 mm 1 m/s 741 mmHg 48%
    11:00 +29°C° 0,1 mm 2 m/s 741 mmHg 48%
    12:00 +29°C° 0,1 mm 2 m/s 740 mmHg 48%
    13:00 +29°C° 0,1 mm 3 m/s 740 mmHg 48%
    14:00 +29°C° 0,1 mm 3 m/s 740 mmHg 49%
    15:00 +28°C° 0,1 mm 2 m/s 740 mmHg 50%
    16:00 +28°C° 0,1 mm 2 m/s 740 mmHg 51%
    17:00 +25°C° 0,1 mm 2 m/s 740 mmHg 63%
    18:00 +22°C° 0,1 mm 1 m/s 740 mmHg 75%
    19:00 +19°C° 0,1 mm 1 m/s 740 mmHg 86%
    20:00 +18°C° 0,1 mm 1 m/s 741 mmHg 87%
    21:00 +16°C° 0,1 mm 1 m/s 741 mmHg 89%
    22:00 +14°C° 0,1 mm 0 m/s 741 mmHg 90%
    23:00 +14°C° 0 mm 0 m/s 741 mmHg 89%

    2 Iunie, Vineri

    Timp Temperatura Precipitaţii Vânt Presiune Umiditate
    00:00 +15°C° 0 mm 0 m/s 741 mmHg 88%
    01:00 +15°C° 0 mm 0 m/s 741 mmHg 87%
    02:00 +15°C° 0 mm 0 m/s 741 mmHg 86%
    03:00 +15°C° 0 mm 0 m/s 740 mmHg 86%
    04:00 +15°C° 0 mm 0 m/s 740 mmHg 85%
    05:00 +17°C° 0,1 mm 0 m/s 741 mmHg 78%
    06:00 +20°C° 0,1 mm 0 m/s 741 mmHg 70%
    07:00 +22°C° 0,1 mm 0 m/s 741 mmHg 62%
    08:00 +25°C° 0,2 mm 1 m/s 741 mmHg 59%
    09:00 +27°C° 0,2 mm 1 m/s 741 mmHg 57%
    10:00 +28°C° 0,2 mm 2 m/s 741 mmHg 54%
    11:00 +28°C° 0,4 mm 2 m/s 741 mmHg 53%
    12:00 +29°C° 0,4 mm 2 m/s 741 mmHg 53%
    13:00 +29°C° 0,4 mm 2 m/s 740 mmHg 52%
    14:00 +28°C° 0,7 mm 2 m/s 740 mmHg 55%
    15:00 +28°C° 0,7 mm 2 m/s 740 mmHg 58%
    16:00 +27°C° 0,7 mm 2 m/s 740 mmHg 62%
    17:00 +25°C° 0,3 mm 2 m/s 740 mmHg 69%
    18:00 +23°C° 0,3 mm 2 m/s 740 mmHg 76%
    19:00 +20°C° 0,3 mm 2 m/s 740 mmHg 83%
    20:00 +20°C° 0,1 mm 2 m/s 741 mmHg 83%
    21:00 +19°C° 0,1 mm 2 m/s 741 mmHg 84%
    22:00 +18°C° 0,1 mm 2 m/s 741 mmHg 85%
    23:00 +18°C° 0,1 mm 2 m/s 741 mmHg 85%
    Arată mai mult